FNG110 EFTU-EFTU

Flight info

Callsign FNG110
Flight time 1h 4m
Altitude 1200
Route EVEKE HIITTINEN NAUVO JUTKI
Aircraft A119/L-SDFZ/C

Departure

Time 2026-04-25 17:40
Airport Turku Airport (EFTU)

Arrival

Time 2026-04-25 18:44
Airport Turku Airport (EFTU)
Time Latitude Longitude Altitude Speed Heading
2026-04-25 17:29 60.51169 22.26577 167 ft 0 kts 179°
2026-04-25 17:36 60.51167 22.26572 170 ft 0 kts 198°
2026-04-25 17:37 60.51163 22.26581 173 ft 1 kts 335°
2026-04-25 17:37 60.51178 22.26562 178 ft 4 kts 332°
2026-04-25 17:37 60.51228 22.26508 184 ft 11 kts
2026-04-25 17:37 60.51299 22.26513 167 ft 7 kts 85°
2026-04-25 17:38 60.51303 22.26604 174 ft 16 kts 80°
2026-04-25 17:38 60.51307 22.26675 173 ft 12 kts 73°
2026-04-25 17:38 60.51379 22.26732 200 ft 19 kts 336°
2026-04-25 17:38 60.51419 22.26649 177 ft 8 kts 272°
2026-04-25 17:39 60.51418 22.26660 238 ft 4 kts 280°
2026-04-25 17:39 60.51400 22.26022 207 ft 75 kts 277°
2026-04-25 17:39 60.51182 22.24915 422 ft 99 kts 235°
2026-04-25 17:39 60.50541 22.24173 582 ft 116 kts 187°
2026-04-25 17:40 60.49720 22.24316 775 ft 121 kts 163°
2026-04-25 17:40 60.48936 22.25138 787 ft 132 kts 144°
2026-04-25 17:40 60.48156 22.26228 915 ft 140 kts 140°
2026-04-25 17:40 60.47338 22.27503 663 ft 152 kts 129°
2026-04-25 17:41 60.46541 22.28922 495 ft 150 kts 123°
2026-04-25 17:41 60.45757 22.30355 519 ft 147 kts 135°
2026-04-25 17:41 60.45016 22.31644 737 ft 138 kts 136°
2026-04-25 17:41 60.44241 22.32695 909 ft 133 kts 131°
2026-04-25 17:42 60.43650 22.34163 963 ft 139 kts 113°
2026-04-25 17:42 60.43104 22.35780 972 ft 140 kts 109°
2026-04-25 17:42 60.42607 22.37532 966 ft 145 kts 111°
2026-04-25 17:42 60.42094 22.39301 961 ft 145 kts 107°
2026-04-25 17:43 60.41563 22.40981 978 ft 142 kts 110°
2026-04-25 17:43 60.41055 22.42742 958 ft 147 kts 109°
2026-04-25 17:43 60.40546 22.44496 960 ft 143 kts 111°
2026-04-25 17:43 60.40031 22.46254 951 ft 147 kts 110°
2026-04-25 17:44 60.39510 22.48048 954 ft 148 kts 114°
2026-04-25 17:44 60.38876 22.49705 941 ft 152 kts 120°
2026-04-25 17:44 60.38044 22.51044 911 ft 156 kts 146°
2026-04-25 17:44 60.37098 22.52087 936 ft 157 kts 147°
2026-04-25 17:45 60.36131 22.53099 953 ft 156 kts 145°
2026-04-25 17:45 60.35810 22.53432 945 ft 157 kts 145°
2026-04-25 17:45 60.34048 22.53807 983 ft 151 kts 187°
2026-04-25 17:45 60.33024 22.53497 1120 ft 148 kts 189°
2026-04-25 17:46 60.31974 22.53186 1135 ft 155 kts 191°
2026-04-25 17:46 60.30893 22.52881 1152 ft 157 kts 188°
2026-04-25 17:46 60.29824 22.52592 1158 ft 157 kts 188°
2026-04-25 17:46 60.28726 22.52479 1156 ft 158 kts 180°
2026-04-25 17:47 60.27652 22.51984 1170 ft 157 kts 200°
2026-04-25 17:47 60.26639 22.51142 1154 ft 157 kts 209°
2026-04-25 17:47 60.25650 22.50264 1154 ft 156 kts 210°
2026-04-25 17:47 60.24649 22.49373 1149 ft 157 kts 210°
2026-04-25 17:48 60.22664 22.47608 1160 ft 159 kts 209°
2026-04-25 17:48 60.21659 22.46699 1159 ft 159 kts 210°
2026-04-25 17:48 60.20639 22.45787 1147 ft 159 kts 209°
2026-04-25 17:49 60.19806 22.44526 1139 ft 147 kts 238°
2026-04-25 17:49 60.19134 22.42972 1154 ft 148 kts 239°
2026-04-25 17:49 60.18473 22.41422 1160 ft 147 kts 239°
2026-04-25 17:49 60.17803 22.39832 1153 ft 147 kts 240°
2026-04-25 17:50 60.17119 22.38299 1141 ft 154 kts 230°
2026-04-25 17:50 60.16183 22.37176 1165 ft 158 kts 214°
2026-04-25 17:50 60.15215 22.36144 1143 ft 158 kts 215°
2026-04-25 17:50 60.14245 22.35111 1146 ft 158 kts 216°
2026-04-25 17:51 60.13270 22.34085 1144 ft 158 kts 214°
2026-04-25 17:51 60.12288 22.33064 1148 ft 159 kts 214°
2026-04-25 17:51 60.11271 22.32194 1123 ft 166 kts 195°
2026-04-25 17:51 60.10113 22.32155 1148 ft 166 kts 179°
2026-04-25 17:52 60.08956 22.32219 1140 ft 168 kts 175°
2026-04-25 17:52 60.08182 22.32460 1154 ft 167 kts 169°
2026-04-25 17:52 60.06656 22.32953 1161 ft 167 kts 169°
2026-04-25 17:52 60.05503 22.33331 1155 ft 168 kts 169°
2026-04-25 17:53 60.04360 22.33712 1168 ft 169 kts 169°
2026-04-25 17:53 60.03230 22.34365 1163 ft 169 kts 159°
2026-04-25 17:53 60.02094 22.35068 1157 ft 168 kts 159°
2026-04-25 17:53 60.00989 22.35751 1157 ft 168 kts 159°
2026-04-25 17:54 59.99891 22.36560 1146 ft 165 kts 143°
2026-04-25 17:54 59.98984 22.37863 1142 ft 160 kts 124°
2026-04-25 17:54 59.98376 22.39638 1171 ft 154 kts 109°
2026-04-25 17:54 59.97800 22.41460 1162 ft 155 kts 109°
2026-04-25 17:55 59.97218 22.43279 1151 ft 156 kts 109°
2026-04-25 17:55 59.96632 22.45105 1157 ft 157 kts 109°
2026-04-25 17:55 59.96008 22.46907 1139 ft 161 kts 118°
2026-04-25 17:55 59.95247 22.48549 1139 ft 165 kts 130°
2026-04-25 17:56 59.94299 22.49867 1150 ft 166 kts 141°
2026-04-25 17:56 59.93302 22.51028 1133 ft 169 kts 151°
2026-04-25 17:56 59.92190 22.51731 1081 ft 164 kts 159°
2026-04-25 17:56 59.91153 22.52351 1040 ft 153 kts 156°
2026-04-25 17:57 59.90227 22.53083 767 ft 125 kts 156°
2026-04-25 17:57 59.89562 22.53779 646 ft 98 kts 151°
2026-04-25 17:57 59.88979 22.54032 618 ft 61 kts 278°
2026-04-25 17:57 59.88876 22.53957 611 ft 35 kts 342°
2026-04-25 17:58 59.89113 22.53783 490 ft 53 kts 340°
2026-04-25 17:58 59.89432 22.53516 422 ft 41 kts 315°
2026-04-25 17:58 59.89516 22.53372 320 ft 10 kts 308°
2026-04-25 17:58 59.89463 22.53428 171 ft 3 kts 327°
2026-04-25 17:59 59.89517 22.53347 174 ft 19 kts 318°
2026-04-25 17:59 59.89562 22.53223 126 ft 3 kts 313°
2026-04-25 17:59 59.89572 22.53232 75 ft 2 kts 317°
2026-04-25 17:59 59.89581 22.53227 40 ft 2 kts 320°
2026-04-25 18:00 59.89582 22.53206 19 ft 0 kts 317°
2026-04-25 18:00 59.89583 22.53206 5 ft 0 kts 325°
2026-04-25 18:01 59.89577 22.53215 25 ft 7 kts 323°
2026-04-25 18:01 59.89523 22.53313 52 ft 7 kts 325°
2026-04-25 18:01 59.89545 22.53251 269 ft 22 kts 303°
2026-04-25 18:01 59.89449 22.52582 441 ft 80 kts 265°
2026-04-25 18:02 59.89162 22.51471 587 ft 94 kts 261°
2026-04-25 18:02 59.88849 22.50387 920 ft 89 kts 260°
2026-04-25 18:02 59.88627 22.49254 1173 ft 97 kts 270°
2026-04-25 18:02 59.88456 22.47774 1139 ft 113 kts 278°
2026-04-25 18:03 59.88541 22.46244 1155 ft 111 kts 291°
2026-04-25 18:03 59.88672 22.44700 1151 ft 113 kts 292°
2026-04-25 18:03 59.88800 22.43159 1152 ft 113 kts 291°
2026-04-25 18:03 59.88927 22.41624 1233 ft 109 kts 291°
2026-04-25 18:04 59.89034 22.40173 1347 ft 106 kts 292°
2026-04-25 18:04 59.89133 22.38715 1481 ft 105 kts 292°
2026-04-25 18:04 59.89225 22.37270 1604 ft 105 kts 292°
2026-04-25 18:04 59.89316 22.35807 1726 ft 104 kts 293°
2026-04-25 18:05 59.89433 22.34398 1855 ft 103 kts 295°
2026-04-25 18:05 59.89552 22.32985 1987 ft 103 kts 295°
2026-04-25 18:05 59.89665 22.31576 2120 ft 103 kts 294°
2026-04-25 18:05 59.89778 22.30167 2260 ft 103 kts 295°
2026-04-25 18:06 59.89893 22.28739 2391 ft 106 kts 294°
2026-04-25 18:06 59.90015 22.27283 2525 ft 107 kts 296°
2026-04-25 18:06 59.90133 22.25821 2651 ft 108 kts 295°
2026-04-25 18:06 59.90252 22.24346 2777 ft 109 kts 295°
2026-04-25 18:07 59.90382 22.22855 2904 ft 106 kts 299°
2026-04-25 18:07 59.90567 22.21425 2963 ft 109 kts 300°
2026-04-25 18:07 59.90771 22.19953 2971 ft 112 kts 300°
2026-04-25 18:07 59.91061 22.18548 2966 ft 108 kts 309°
2026-04-25 18:08 59.91407 22.17217 2968 ft 108 kts 310°
2026-04-25 18:08 59.91753 22.15884 2965 ft 108 kts 310°
2026-04-25 18:08 59.92097 22.14545 2967 ft 108 kts 309°
2026-04-25 18:08 59.92436 22.13215 2971 ft 108 kts 310°
2026-04-25 18:09 59.92771 22.11885 2979 ft 108 kts 310°
2026-04-25 18:09 59.93114 22.10546 2976 ft 109 kts 310°
2026-04-25 18:09 59.93462 22.09201 2978 ft 108 kts 310°
2026-04-25 18:09 59.93577 22.08757 2977 ft 108 kts 310°
2026-04-25 18:10 59.94367 22.07013 2981 ft 99 kts 330°
2026-04-25 18:10 59.94914 22.06192 2974 ft 99 kts 330°
2026-04-25 18:10 59.95468 22.05351 2974 ft 99 kts 330°
2026-04-25 18:10 59.96011 22.04519 2973 ft 99 kts 330°
2026-04-25 18:11 59.96557 22.03668 2963 ft 99 kts 330°
2026-04-25 18:11 59.97100 22.02820 2967 ft 99 kts 330°
2026-04-25 18:11 59.97642 22.01978 2970 ft 99 kts 330°
2026-04-25 18:11 59.98186 22.01138 2970 ft 99 kts 330°
2026-04-25 18:12 59.98740 22.00286 2969 ft 99 kts 330°
2026-04-25 18:12 59.99285 21.99451 2971 ft 99 kts 330°
2026-04-25 18:12 59.99832 21.98625 2977 ft 99 kts 330°
2026-04-25 18:12 60.00387 21.97792 2981 ft 100 kts 330°
2026-04-25 18:13 60.00908 21.96853 2986 ft 102 kts 325°
2026-04-25 18:13 60.01425 21.95861 2991 ft 102 kts 325°
2026-04-25 18:13 60.01930 21.94872 2989 ft 102 kts 325°
2026-04-25 18:14 60.02936 21.92883 2999 ft 103 kts 325°
2026-04-25 18:14 60.03453 21.91869 2984 ft 105 kts 325°
2026-04-25 18:14 60.03972 21.90864 2982 ft 104 kts 325°
2026-04-25 18:14 60.04492 21.89866 2979 ft 104 kts 325°
2026-04-25 18:15 60.05019 21.88863 2984 ft 103 kts 325°
2026-04-25 18:15 60.05539 21.87872 2986 ft 103 kts 325°
2026-04-25 18:15 60.06059 21.86881 2907 ft 107 kts 325°
2026-04-25 18:15 60.06612 21.85844 2766 ft 110 kts 324°
2026-04-25 18:16 60.07174 21.84792 2627 ft 110 kts 324°
2026-04-25 18:16 60.07754 21.83785 2470 ft 109 kts 333°
2026-04-25 18:16 60.09220 21.83650 2151 ft 106 kts 360°
2026-04-25 18:17 60.09946 21.83793 2016 ft 106 kts
2026-04-25 18:17 60.10670 21.83622 1773 ft 113 kts 335°
2026-04-25 18:17 60.11186 21.82288 1407 ft 129 kts 303°
2026-04-25 18:17 60.11508 21.80588 1048 ft 133 kts 299°
2026-04-25 18:18 60.11784 21.78812 718 ft 134 kts 294°
2026-04-25 18:18 60.12016 21.77073 619 ft 126 kts 295°
2026-04-25 18:18 60.12194 21.75331 515 ft 127 kts 290°
2026-04-25 18:18 60.12391 21.73668 515 ft 120 kts 295°
2026-04-25 18:19 60.12600 21.72060 506 ft 120 kts 296°
2026-04-25 18:19 60.12823 21.70453 503 ft 118 kts 299°
2026-04-25 18:19 60.13117 21.68930 509 ft 115 kts 304°
2026-04-25 18:19 60.13738 21.68135 470 ft 108 kts 352°
2026-04-25 18:20 60.14414 21.68789 489 ft 118 kts 33°
2026-04-25 18:20 60.15051 21.69641 475 ft 103 kts
2026-04-25 18:20 60.15681 21.69861 442 ft 78 kts 357°
2026-04-25 18:20 60.16127 21.70027 476 ft 52 kts 17°
2026-04-25 18:21 60.16408 21.70327 387 ft 43 kts
2026-04-25 18:21 60.16583 21.70741 352 ft 40 kts 81°
2026-04-25 18:21 60.16499 21.71086 234 ft 14 kts 222°
2026-04-25 18:21 60.16456 21.70939 198 ft 3 kts 221°
2026-04-25 18:22 60.16446 21.70932 125 ft 8 kts 224°
2026-04-25 18:22 60.16439 21.70897 97 ft 6 kts 220°
2026-04-25 18:22 60.16433 21.70882 23 ft 0 kts 218°
2026-04-25 18:22 60.16432 21.70882 18 ft 0 kts 217°
2026-04-25 18:23 60.16431 21.70882 16 ft 0 kts 216°
2026-04-25 18:23 60.16432 21.70881 25 ft 2 kts 216°
2026-04-25 18:23 60.16451 21.70910 136 ft 7 kts 213°
2026-04-25 18:24 60.16457 21.70948 276 ft 11 kts 276°
2026-04-25 18:24 60.16546 21.70369 271 ft 62 kts 320°
2026-04-25 18:24 60.17004 21.70122 386 ft 82 kts
2026-04-25 18:24 60.17607 21.70372 333 ft 99 kts
2026-04-25 18:25 60.18246 21.70563 487 ft 91 kts 359°
2026-04-25 18:25 60.18894 21.70704 528 ft 98 kts
2026-04-25 18:25 60.19569 21.71221 517 ft 109 kts 18°
2026-04-25 18:25 60.20192 21.72170 522 ft 115 kts 30°
2026-04-25 18:26 60.20670 21.73538 511 ft 121 kts 45°
2026-04-25 18:26 60.21128 21.74968 513 ft 118 kts 38°
2026-04-25 18:26 60.21664 21.76199 511 ft 119 kts 37°
2026-04-25 18:26 60.22162 21.77585 488 ft 124 kts 47°
2026-04-25 18:27 60.22543 21.79161 485 ft 129 kts 56°
2026-04-25 18:27 60.22805 21.80899 495 ft 131 kts 60°
2026-04-25 18:27 60.23063 21.82653 502 ft 128 kts 56°
2026-04-25 18:27 60.23554 21.83983 511 ft 116 kts 32°
2026-04-25 18:28 60.24172 21.84995 512 ft 113 kts 23°
2026-04-25 18:28 60.24837 21.85835 501 ft 112 kts 21°
2026-04-25 18:28 60.25448 21.86850 449 ft 126 kts 44°
2026-04-25 18:29 60.26065 21.90202 490 ft 128 kts 56°
2026-04-25 18:29 60.26361 21.91888 487 ft 128 kts 57°
2026-04-25 18:30 60.27528 21.96014 475 ft 66 kts 10°
2026-04-25 18:30 60.27908 21.96282 449 ft 64 kts 356°
2026-04-25 18:30 60.28255 21.96470 471 ft 42 kts
2026-04-25 18:30 60.28452 21.96966 427 ft 45 kts 31°
2026-04-25 18:31 60.28600 21.97463 577 ft 39 kts 22°
2026-04-25 18:31 60.28859 21.97843 650 ft 63 kts 14°
2026-04-25 18:31 60.29336 21.98234 470 ft 80 kts 12°
2026-04-25 18:31 60.29745 21.98885 487 ft 73 kts 30°
2026-04-25 18:32 60.30099 21.99413 511 ft 57 kts
2026-04-25 18:32 60.30470 21.99439 528 ft 54 kts 336°
2026-04-25 18:32 60.30818 21.98910 483 ft 68 kts 321°
2026-04-25 18:32 60.31094 21.98137 484 ft 68 kts 306°
2026-04-25 18:33 60.31287 21.97249 490 ft 69 kts 297°
2026-04-25 18:33 60.31385 21.96259 476 ft 74 kts 287°
2026-04-25 18:33 60.31433 21.95260 498 ft 70 kts 287°
2026-04-25 18:33 60.31500 21.94284 480 ft 69 kts 292°
2026-04-25 18:34 60.31578 21.93348 469 ft 67 kts 291°
2026-04-25 18:34 60.31659 21.92426 484 ft 65 kts 293°
2026-04-25 18:34 60.31880 21.91725 441 ft 56 kts 327°
2026-04-25 18:34 60.32216 21.91710 470 ft 51 kts
2026-04-25 18:35 60.32450 21.92390 477 ft 70 kts 49°
2026-04-25 18:35 60.32512 21.93410 494 ft 66 kts 47°
2026-04-25 18:35 60.32732 21.94119 508 ft 56 kts 17°
2026-04-25 18:35 60.33080 21.94393 511 ft 55 kts 359°
2026-04-25 18:36 60.33461 21.94655 474 ft 64 kts 19°
2026-04-25 18:36 60.33690 21.95469 420 ft 70 kts 55°
2026-04-25 18:36 60.33640 21.96386 503 ft 64 kts 73°
2026-04-25 18:36 60.33612 21.97328 598 ft 81 kts 63°
2026-04-25 18:37 60.33732 21.98650 519 ft 104 kts 64°
2026-04-25 18:37 60.33789 22.00213 539 ft 121 kts 73°
2026-04-25 18:37 60.33850 22.02011 500 ft 134 kts 73°
2026-04-25 18:37 60.33933 22.03895 507 ft 135 kts 73°
2026-04-25 18:38 60.34214 22.05588 519 ft 124 kts 51°
2026-04-25 18:38 60.34760 22.06864 574 ft 115 kts 31°
2026-04-25 18:38 60.35388 22.07795 706 ft 109 kts 27°
2026-04-25 18:38 60.36008 22.08665 846 ft 109 kts 24°
2026-04-25 18:39 60.36633 22.09535 977 ft 110 kts 24°
2026-04-25 18:39 60.37257 22.10414 1105 ft 108 kts 25°
2026-04-25 18:39 60.37874 22.11306 1187 ft 109 kts 26°
2026-04-25 18:39 60.38520 22.12136 1194 ft 113 kts 19°
2026-04-25 18:40 60.39173 22.13041 1182 ft 114 kts 31°
2026-04-25 18:40 60.39781 22.14057 1190 ft 114 kts 31°
2026-04-25 18:40 60.40334 22.15296 1185 ft 121 kts 43°
2026-04-25 18:40 60.40964 22.16252 1208 ft 111 kts 22°
2026-04-25 18:41 60.41661 22.16976 1183 ft 112 kts 17°
2026-04-25 18:41 60.42391 22.17516 1191 ft 114 kts
2026-04-25 18:41 60.43155 22.17986 1192 ft 115 kts
2026-04-25 18:41 60.43921 22.18377 1195 ft 114 kts
2026-04-25 18:42 60.44688 22.18730 1184 ft 111 kts
2026-04-25 18:42 60.44941 22.18853 1179 ft 113 kts
2026-04-25 18:42 60.46211 22.19435 1178 ft 113 kts 11°
2026-04-25 18:42 60.46937 22.19987 1111 ft 115 kts 27°
2026-04-25 18:43 60.47595 22.20932 1052 ft 115 kts 27°
2026-04-25 18:43 60.48238 22.21891 986 ft 113 kts 23°
2026-04-25 18:43 60.48853 22.22719 939 ft 101 kts 23°
2026-04-25 18:43 60.49412 22.23588 877 ft 101 kts 25°
2026-04-25 18:44 60.49937 22.24453 762 ft 88 kts 22°
2026-04-25 18:44 60.50359 22.25123 681 ft 72 kts 29°
2026-04-25 18:44 60.50603 22.25976 599 ft 60 kts 35°
2026-04-25 18:44 60.50818 22.26390 517 ft 28 kts
2026-04-25 18:45 60.50995 22.26420 385 ft 23 kts 10°
2026-04-25 18:45 60.51098 22.26489 235 ft 5 kts 27°
2026-04-25 18:45 60.51115 22.26523 180 ft 2 kts 18°
2026-04-25 18:45 60.51123 22.26528 172 ft 2 kts 107°
2026-04-25 18:46 60.51126 22.26532 169 ft 0 kts 107°
2026-04-25 18:46 60.51125 22.26535 167 ft 0 kts 105°